Temp
12 11 10 10 10 10 10 10 10 10 10 10 11 12 12 12 12 13 13 13 13 13 13 13 13 13 14 13 18 19 19 19 19 18 19 19 19 20 19 20 21 20 22 21 21 20 18
12 12 12 11 10 10 10 10 10 10 10 10 10 11 11 12 12 12 13 13 13 13 13 13 13 13 13 12 19 19 20 19 19 19 19 19 20 21 21 21 20 23 23 23 19 19 19
12 12 12 12 12 10 9 9 10 10 10 10 10 11 11 11 12 12 12 12 13 13 13 13 13 13 13 18 19 18 18 19 19 19 19 20 21 21 21 19 21 23 22 21 19 19 17
12 12 12 12 12 12 10 9 9 10 10 10 10 10 11 11 12 12 12 12 13 13 13 13 13 12 14 19 19 19 19 19 19 19 20 20 20 21 21 21 21 22 20 19 22 19 18
12 12 12 12 12 12 11 10 9 9 10 9 9 10 11 11 12 12 12 12 13 13 13 13 13 11 13 18 19 20 20 20 20 20 20 20 20 20 20 18 16 19 18 20 21 20 19
11 11 12 12 12 12 12 11 9 9 9 9 9 9 10 11 11 11 12 13 13 13 13 13 12 10 17 19 20 21 20 21 21 20 20 20 20 17 17 16 16 17 19 18 20 19 19
10 9 10 11 12 11 11 11 10 9 9 9 9 9 10 10 11 11 12 13 13 12 12 15 16 17 18 19 21 21 21 21 21 20 17 18 17 16 17 19 20 20 18 19 20 21 19
7 9 9 10 11 11 10 11 11 9 9 9 8 9 9 10 10 11 11 12 13 12 12 15 16 15 17 18 20 21 21 21 20 16 16 14 15 17 19 20 20 18 18 19 21 23 20
2 5 6 8 9 11 10 9 10 9 9 9 8 8 9 10 10 11 11 14 14 13 12 16 18 17 18 19 20 20 21 21 17 16 16 15 17 19 20 19 20 19 19 20 20 22 22
2 2 4 4 5 6 9 8 8 9 8 9 8 8 9 10 10 10 13 14 15 12 10 17 18 19 19 20 20 21 21 22 18 18 16 17 18 18 18 19 20 19 21 20 20 20 18
0 1 1 2 2 2 4 5 6 8 8 8 8 8 9 9 10 10 12 13 13 12 11 19 19 20 20 20 21 21 22 22 17 17 17 16 17 17 16 19 21 19 20 20 19 19 18
-0 0 1 1 1 2 2 2 4 6 7 7 8 8 8 9 10 12 12 13 13 11 12 20 20 20 19 20 21 21 22 22 22 19 18 17 18 16 19 20 20 20 21 19 17 16 15
-0 -0 0 1 1 1 2 2 2 5 6 7 7 8 8 9 10 10 11 12 11 11 19 20 19 20 19 19 20 20 20 19 17 17 16 18 19 18 18 18 19 19 18 14 13 12 13
0 0 0 0 1 1 1 2 2 3 5 6 7 8 8 9 10 10 10 10 11 16 17 21 20 19 18 19 19 20 19 17 18 18 17 16 15 18 20 18 17 19 17 14 13 12 13
-0 -1 -0 -0 1 1 1 1 2 2 4 5 7 7 7 10 10 8 9 11 12 16 19 20 20 18 18 19 19 19 18 17 18 19 17 16 16 17 18 17 20 20 17 18 14 12 10
-1 -0 -1 -1 1 0 1 1 1 2 3 5 6 6 7 10 9 8 9 11 13 17 19 19 18 19 17 19 19 18 18 19 19 20 17 15 15 15 17 18 20 20 19 16 14 14 14
-1 -1 -0 -1 -1 -0 1 2 2 2 3 4 5 6 7 8 8 7 9 11 13 16 18 19 19 19 19 18 18 18 19 20 20 18 16 14 15 14 15 16 17 18 18 18 17 14 13
-1 -1 -1 -0 -1 -1 0 2 2 2 2 3 5 6 9 8 7 8 9 11 14 16 17 17 20 20 19 19 18 18 18 19 22 20 18 16 14 12 15 17 19 20 18 16 11 16 13
-2 -2 -1 -1 -1 -0 0 1 2 2 3 3 6 8 8 9 8 7 10 11 13 15 16 18 19 20 20 18 18 18 17 18 19 19 18 18 16 12 15 17 18 19 19 19 17 12 14
-2 -2 -1 -1 -2 -1 -0 1 1 2 3 4 6 7 7 7 11 10 10 11 12 15 16 18 19 19 19 19 19 19 16 17 18 16 17 18 17 15 13 16 18 17 17 18 16 9 13
-2 -2 -0 -1 -1 -1 -0 -0 1 2 2 4 5 9 10 8 8 10 11 13 13 14 16 18 18 18 18 17 19 19 16 16 17 16 18 16 15 18 17 17 19 19 18 18 18 15 13
-2 -1 -1 -1 -1 -1 -1 -0 0 1 2 2 5 10 11 11 10 10 11 12 14 15 16 17 17 18 18 18 17 17 17 16 15 15 16 16 14 17 16 17 16 16 17 17 17 18 18
-2 -2 -1 -1 -2 -1 -0 -0 0 1 1 3 3 9 11 10 10 10 11 14 14 16 17 19 18 17 17 18 19 19 20 18 17 14 14 14 13 10 13 12 13 10 14 16 16 17 17
-2 -1 -1 -1 -1 -1 -0 -0 -0 1 1 3 3 6 10 9 10 11 13 14 15 15 15 19 20 16 18 19 19 18 17 16 15 14 16 13 13 8 8 8 9 13 18 18 17 16 15
-1 -1 -1 -1 -1 -1 -1 -0 -0 1 1 2 4 4 8 4 11 12 13 14 15 17 16 18 18 19 19 17 11 12 9 12 15 16 16 13 9 8 8 7 12 15 16 17 15 14 14
-1 -1 -1 -1 -1 -1 -1 -1 0 1 2 2 3 5 6 8 10 13 13 15 14 13 12 13 16 17 19 12 7 11 9 13 13 14 12 12 10 7 7 7 7 11 16 17 17 11 14
-1 -1 -0 -0 -1 -0 0 0 1 1 1 2 2 4 5 8 12 13 13 14 15 12 9 11 13 14 16 4 7 7 9 14 11 10 9 6 7 6 4 5 8 14 16 16 11 10 14
-1 -1 -0 -0 -0 -0 0 0 1 1 2 3 3 4 5 7 11 13 15 16 16 14 10 12 10 11 9 8 7 7 6 9 11 12 9 8 6 4 6 6 8 16 15 12 11 14 14
-1 -1 -0 -0 -0 -0 0 1 1 1 2 4 3 4 5 5 8 11 15 16 17 17 14 12 13 13 13 9 7 5 8 5 9 8 13 9 9 8 9 8 12 16 14 13 13 12 12
Height
1521 1522 1523 1524 1526 1528 1528 1530 1531 1532 1531 1531 1530 1529 1528 1527 1527 1525 1524 1522 1519 1516 1513 1511 1510 1507 1505 1504 1496 1495 1495 1496 1495 1496 1497 1498 1498 1497 1496 1492 1492 1493 1487 1491 1492 1493 1500
1517 1518 1517 1517 1519 1521 1523 1525 1527 1527 1527 1527 1527 1526 1526 1525 1524 1523 1521 1519 1517 1514 1511 1511 1509 1508 1506 1504 1495 1495 1496 1496 1497 1497 1498 1497 1496 1495 1493 1491 1492 1484 1484 1491 1497 1496 1499
1511 1512 1513 1513 1513 1514 1517 1520 1522 1523 1524 1524 1524 1523 1523 1522 1521 1520 1519 1517 1515 1512 1510 1510 1508 1507 1504 1496 1494 1496 1495 1498 1498 1498 1497 1496 1497 1496 1493 1490 1487 1482 1486 1488 1492 1490 1503
1503 1505 1507 1508 1509 1509 1511 1513 1516 1517 1519 1520 1521 1520 1520 1519 1518 1518 1516 1514 1512 1510 1508 1508 1507 1506 1498 1492 1492 1493 1495 1497 1497 1497 1498 1498 1496 1494 1494 1493 1488 1486 1488 1501 1488 1496 1502
1495 1497 1499 1501 1503 1504 1505 1508 1510 1512 1514 1516 1517 1517 1517 1516 1516 1515 1513 1512 1510 1508 1506 1507 1507 1507 1496 1491 1491 1491 1493 1494 1496 1497 1498 1498 1497 1496 1495 1497 1503 1493 1504 1496 1493 1490 1497
1485 1487 1490 1493 1495 1498 1500 1501 1504 1507 1509 1511 1513 1513 1513 1513 1513 1512 1511 1509 1507 1505 1505 1505 1505 1510 1493 1488 1489 1489 1491 1493 1496 1496 1498 1499 1498 1498 1497 1503 1518 1507 1502 1501 1496 1495 1492
1475 1478 1481 1484 1487 1490 1493 1495 1498 1501 1504 1507 1509 1510 1510 1510 1510 1510 1510 1508 1508 1504 1503 1499 1497 1492 1489 1488 1485 1488 1490 1493 1495 1496 1501 1501 1505 1508 1500 1494 1492 1495 1502 1501 1490 1486 1494
1465 1469 1472 1475 1478 1481 1485 1488 1492 1495 1499 1502 1505 1507 1507 1508 1508 1508 1508 1507 1506 1509 1499 1493 1490 1490 1487 1488 1487 1486 1489 1493 1493 1500 1501 1506 1512 1500 1494 1492 1493 1499 1504 1499 1487 1478 1488
1454 1457 1462 1465 1469 1472 1476 1480 1485 1489 1493 1497 1501 1503 1505 1505 1506 1506 1506 1504 1505 1503 1501 1486 1483 1483 1484 1486 1485 1483 1487 1489 1493 1499 1500 1510 1505 1499 1495 1497 1497 1498 1502 1496 1496 1484 1482
1444 1447 1450 1455 1459 1464 1467 1472 1477 1482 1487 1492 1496 1499 1502 1504 1507 1504 1503 1503 1504 1504 1507 1484 1477 1479 1481 1483 1481 1481 1484 1487 1490 1495 1500 1501 1499 1500 1500 1497 1493 1500 1488 1490 1491 1496 1509
1432 1437 1441 1445 1449 1455 1458 1463 1470 1476 1480 1487 1492 1495 1498 1502 1502 1502 1503 1501 1505 1506 1521 1468 1472 1474 1476 1480 1475 1477 1480 1482 1488 1491 1497 1501 1497 1501 1503 1494 1489 1495 1486 1489 1490 1495 1499
1421 1425 1431 1434 1439 1445 1450 1455 1462 1469 1473 1481 1487 1491 1494 1497 1499 1502 1502 1503 1505 1512 1510 1467 1466 1470 1474 1475 1475 1475 1477 1480 1482 1486 1490 1494 1493 1496 1490 1486 1485 1485 1485 1488 1495 1503 1520
1407 1415 1421 1425 1429 1435 1441 1447 1454 1461 1467 1474 1482 1485 1488 1493 1496 1500 1500 1503 1509 1509 1467 1463 1465 1465 1471 1474 1474 1474 1476 1483 1491 1497 1503 1493 1490 1488 1491 1494 1488 1490 1497 1524 1533 1538 1533
1394 1403 1408 1414 1420 1425 1432 1439 1445 1455 1461 1468 1476 1481 1483 1487 1495 1497 1499 1503 1503 1477 1468 1450 1458 1463 1472 1470 1472 1473 1477 1487 1482 1484 1494 1501 1513 1495 1488 1496 1500 1490 1498 1524 1537 1543 1531
1381 1389 1397 1404 1410 1416 1422 1430 1439 1447 1455 1463 1472 1474 1476 1482 1492 1495 1499 1495 1484 1467 1457 1456 1456 1465 1470 1467 1469 1473 1476 1481 1477 1476 1495 1498 1502 1494 1488 1489 1489 1488 1498 1487 1514 1526 1539
1368 1377 1385 1393 1399 1406 1413 1422 1432 1440 1449 1458 1463 1468 1469 1479 1487 1491 1493 1478 1471 1456 1452 1455 1461 1458 1470 1468 1470 1472 1475 1468 1471 1469 1472 1491 1504 1496 1486 1489 1481 1483 1485 1506 1509 1526 1527
1355 1365 1374 1382 1389 1397 1405 1414 1424 1432 1443 1451 1459 1464 1464 1475 1483 1486 1476 1473 1468 1455 1457 1456 1452 1456 1457 1464 1465 1469 1470 1463 1461 1467 1471 1483 1492 1504 1499 1497 1491 1489 1492 1489 1494 1507 1525
1343 1354 1362 1371 1379 1387 1396 1405 1414 1425 1436 1445 1451 1455 1459 1467 1477 1472 1468 1468 1465 1455 1455 1455 1447 1449 1453 1455 1460 1465 1466 1464 1455 1461 1473 1476 1492 1512 1497 1482 1475 1476 1484 1490 1521 1508 1511
1331 1342 1351 1360 1369 1377 1386 1396 1405 1416 1425 1434 1440 1448 1453 1455 1460 1459 1462 1465 1461 1454 1452 1450 1446 1446 1445 1451 1466 1461 1461 1459 1458 1460 1467 1470 1482 1510 1499 1487 1477 1479 1476 1478 1484 1501 1506
1320 1332 1341 1350 1357 1366 1377 1385 1397 1408 1418 1429 1434 1438 1446 1448 1440 1446 1455 1454 1456 1450 1450 1447 1445 1444 1446 1449 1447 1455 1463 1461 1459 1462 1464 1465 1474 1488 1507 1491 1480 1484 1480 1476 1484 1518 1507
1310 1321 1331 1341 1349 1358 1368 1376 1390 1400 1411 1419 1419 1417 1416 1424 1433 1435 1444 1446 1448 1448 1444 1442 1442 1443 1446 1454 1450 1452 1459 1463 1463 1464 1465 1468 1482 1476 1477 1476 1475 1475 1478 1477 1480 1484 1501
1300 1312 1323 1333 1342 1352 1361 1369 1379 1392 1404 1412 1406 1406 1411 1412 1425 1433 1433 1435 1437 1438 1439 1438 1444 1439 1440 1447 1449 1453 1453 1458 1463 1466 1466 1467 1482 1476 1482 1477 1479 1482 1476 1476 1476 1473 1475
1291 1304 1316 1327 1336 1346 1354 1362 1372 1384 1396 1394 1399 1400 1404 1410 1416 1426 1415 1421 1427 1431 1432 1431 1433 1437 1439 1439 1440 1441 1444 1450 1454 1461 1467 1470 1477 1493 1494 1490 1487 1502 1480 1476 1474 1471 1473
1284 1298 1310 1320 1328 1337 1346 1355 1365 1376 1383 1391 1396 1401 1401 1402 1407 1405 1415 1421 1423 1423 1430 1426 1427 1432 1435 1436 1442 1445 1447 1452 1453 1462 1460 1470 1476 1494 1507 1504 1518 1480 1465 1465 1472 1475 1474
1283 1294 1303 1312 1321 1330 1339 1349 1358 1370 1379 1386 1392 1399 1395 1401 1399 1407 1410 1410 1420 1420 1425 1423 1424 1426 1431 1437 1453 1463 1472 1468 1465 1463 1462 1463 1480 1498 1508 1511 1490 1474 1468 1467 1472 1484 1476
1281 1290 1299 1307 1314 1323 1333 1342 1354 1363 1374 1384 1385 1393 1398 1392 1388 1396 1405 1409 1412 1418 1424 1420 1422 1426 1428 1438 1457 1464 1479 1467 1472 1468 1465 1467 1471 1492 1504 1510 1516 1481 1467 1465 1466 1493 1478
1281 1288 1295 1301 1307 1318 1328 1339 1350 1360 1372 1378 1382 1390 1392 1391 1387 1391 1393 1393 1402 1411 1420 1422 1428 1432 1428 1449 1462 1468 1469 1452 1474 1477 1483 1489 1489 1499 1511 1513 1494 1468 1465 1466 1489 1496 1477
1281 1287 1295 1300 1307 1317 1327 1339 1349 1358 1369 1376 1378 1388 1398 1392 1384 1388 1393 1394 1398 1400 1414 1423 1436 1436 1435 1445 1452 1458 1469 1460 1463 1460 1471 1480 1492 1503 1500 1506 1499 1463 1465 1476 1477 1475 1477
1284 1290 1297 1304 1312 1320 1329 1339 1348 1358 1364 1373 1378 1385 1391 1396 1389 1386 1386 1386 1389 1393 1403 1419 1426 1427 1424 1430 1438 1450 1458 1464 1461 1475 1455 1473 1467 1477 1477 1480 1463 1462 1465 1469 1471 1474 1477
Wind_Speed
20 25 32 33 32 28 23 20 19 17 17 17 16 15 15 15 16 17 18 20 22 21 18 16 15 12 10 7 8 5 9 5 4 9 9 9 13 16 7 7 16 8 9 13 14 13 16
23 22 21 26 32 31 26 23 22 20 17 17 17 16 16 15 15 16 18 19 20 18 16 14 13 11 8 7 8 2 10 4 3 8 9 9 13 14 19 14 6 13 12 18 20 26 17
26 24 23 21 22 29 29 26 24 23 19 17 17 17 16 15 15 16 17 18 18 16 13 12 11 10 12 17 2 2 6 5 2 4 10 10 14 10 15 10 22 14 2 6 13 16 3
31 28 26 24 22 21 29 29 26 23 21 18 17 16 16 15 15 15 16 16 15 13 10 10 8 10 10 1 6 8 6 13 8 6 11 10 12 9 8 13 11 4 4 3 4 13 13
36 33 30 27 25 23 22 28 28 27 24 20 17 16 16 15 15 15 15 15 13 11 8 8 5 8 13 2 9 9 6 15 17 8 11 10 9 6 12 4 5 4 2 1 4 19 9
39 38 35 33 29 26 24 23 28 28 24 21 18 16 16 15 14 14 14 14 12 10 8 9 9 9 11 6 5 4 11 13 5 6 7 8 4 3 4 2 3 2 3 6 8 10 6
42 39 38 36 34 31 27 25 25 28 26 24 19 17 16 15 13 14 13 10 8 3 6 11 7 12 9 8 11 9 10 8 9 8 2 6 3 0 4 3 4 1 6 11 5 8 7
42 41 39 39 37 34 30 27 24 27 28 24 21 18 16 14 13 13 13 8 10 10 11 19 23 28 22 13 7 11 11 10 9 3 2 6 7 7 9 7 5 7 14 7 8 4 6
39 40 39 40 40 38 34 30 26 25 28 26 23 19 16 13 13 13 15 16 9 10 4 14 21 22 18 10 8 17 15 15 12 5 7 4 7 11 6 6 12 14 5 14 6 3 2
40 40 41 39 37 37 37 32 27 26 29 28 23 20 16 11 10 7 7 4 6 1 3 6 12 10 15 18 9 20 17 15 2 6 7 5 5 8 9 9 11 8 4 5 9 2 3
45 43 41 42 36 33 33 32 27 27 30 30 25 22 18 11 7 9 4 3 7 3 3 6 12 6 13 15 3 10 17 29 8 8 5 7 2 5 4 11 3 7 6 5 5 4 4
46 47 41 41 42 36 33 29 27 30 29 32 27 24 19 18 19 8 1 5 7 1 7 4 12 9 9 17 16 11 12 7 5 7 1 5 6 6 5 8 4 8 3 4 6 3 2
51 44 45 41 42 43 36 33 27 30 29 31 30 23 24 19 19 10 8 4 2 4 6 7 14 8 11 8 8 5 6 5 4 4 5 4 8 4 4 6 10 4 4 3 5 5 5
50 48 46 46 39 42 39 32 31 30 28 31 29 26 27 25 17 7 9 2 8 12 11 3 10 10 10 8 9 8 6 7 9 6 4 6 7 2 3 10 3 4 5 4 5 2 4
51 44 47 50 43 41 40 37 34 28 30 31 29 26 30 27 23 10 6 10 8 7 10 4 8 9 8 11 7 9 8 7 11 12 7 3 1 3 9 6 2 1 3 5 6 4 4
57 49 44 43 51 34 39 40 36 31 32 34 29 29 33 28 26 17 6 14 7 18 9 6 8 8 8 11 7 7 9 7 7 15 10 4 3 3 12 12 11 4 3 4 3 4 4
57 49 45 45 46 41 38 39 39 34 34 34 25 14 23 30 25 15 13 12 16 29 17 8 6 7 7 7 9 6 6 9 9 5 12 6 4 5 5 6 10 1 2 3 3 4 4
56 47 41 45 43 49 39 44 39 38 35 36 22 6 18 35 12 9 15 17 16 22 26 10 4 1 7 7 7 9 8 2 10 14 9 8 5 4 18 17 9 5 5 2 4 4 2
52 46 40 41 44 46 47 45 41 41 42 39 17 13 29 41 12 12 7 18 26 20 20 7 3 3 3 7 7 10 5 6 9 5 6 3 2 3 3 3 4 3 4 4 3 3 4
51 45 39 39 44 48 44 39 43 42 44 39 14 6 16 33 27 19 17 17 22 22 21 23 8 8 5 5 3 7 3 2 5 5 5 4 1 6 6 6 2 5 5 5 5 4 3
50 46 42 43 37 40 42 41 45 45 46 40 14 11 18 12 20 13 18 13 19 17 21 15 8 9 7 5 3 5 4 3 3 3 2 4 4 1 5 5 3 4 5 6 4 6 7
48 44 42 44 38 37 37 41 43 47 46 44 8 11 24 6 25 15 20 21 24 19 17 16 13 10 8 6 7 7 8 5 6 2 5 1 2 3 2 6 7 3 5 8 6 5 1
44 41 40 42 37 38 39 40 44 50 49 26 33 22 20 14 18 17 21 23 22 15 17 22 11 7 8 6 11 12 10 14 10 8 6 6 4 3 2 4 6 6 6 6 6 4 3
39 40 40 39 39 42 41 42 45 53 53 25 39 14 12 9 14 20 21 22 21 23 14 19 24 7 12 27 24 21 23 16 16 9 4 6 5 3 3 3 1 9 1 5 6 6 8
37 37 38 40 41 43 44 45 52 54 51 49 31 23 3 3 17 16 23 24 27 25 21 8 7 14 29 11 4 4 5 6 0 3 4 4 5 2 4 4 5 6 2 2 4 4 6
33 33 35 37 40 44 44 46 52 50 49 46 49 17 14 4 12 31 27 26 13 10 2 1 6 25 26 4 3 5 4 6 4 2 8 7 5 5 2 4 6 6 3 5 4 2 6
32 29 31 32 35 39 43 50 50 45 49 35 43 42 10 7 10 25 21 27 30 7 5 3 8 3 4 3 3 3 2 7 5 8 4 3 3 5 2 2 7 5 6 2 6 5 9
26 25 30 27 34 44 44 46 44 44 39 39 48 41 18 7 12 30 32 30 19 20 7 12 4 7 1 3 4 3 3 5 4 8 7 6 6 3 4 3 5 10 4 6 7 13 13
24 23 26 26 28 32 34 39 41 38 34 45 43 48 26 15 10 9 28 22 34 30 26 19 15 9 11 4 3 4 2 2 3 2 2 2 6 6 7 6 7 14 21 21 20 18 16
Wind_Direction
263 260 254 253 257 262 257 258 270 283 295 302 304 296 291 298 305 311 317 322 323 324 328 326 322 325 325 299 268 0 338 319 272 201 196 215 260 265 251 257 267 245 254 122 161 144 96
264 264 263 258 256 254 256 255 256 269 282 294 298 298 291 295 301 308 315 321 321 323 329 328 322 320 312 277 20 327 340 314 223 195 194 240 257 264 266 270 280 241 228 121 110 114 105
262 263 265 265 263 250 251 255 257 256 269 283 292 296 295 294 298 306 313 319 319 320 328 322 316 312 287 247 149 150 301 360 208 193 225 250 284 312 337 331 324 309 56 149 132 111 82
263 261 261 263 264 265 249 249 255 255 258 272 285 291 292 292 295 304 311 315 314 316 320 308 307 307 265 226 226 188 228 258 247 264 276 301 316 314 341 309 325 357 4 116 246 114 164
263 263 262 261 260 261 258 248 249 257 253 260 273 283 289 287 291 301 308 311 306 306 306 289 291 307 270 236 237 223 213 243 241 230 253 279 305 278 283 293 341 345 228 208 234 145 154
255 259 261 262 260 259 258 250 246 251 253 248 265 274 282 283 290 297 304 305 299 293 283 274 243 293 252 205 187 259 271 242 204 217 233 251 253 259 299 87 229 286 26 287 215 166 143
253 253 256 257 260 260 257 253 246 242 246 248 257 269 277 279 283 292 300 305 338 22 275 237 271 240 296 322 199 238 216 207 219 164 203 335 359 94 294 357 124 43 285 266 266 237 138
249 249 251 254 255 257 258 253 247 239 238 242 245 259 270 277 279 285 287 263 102 2 294 276 265 255 269 285 292 240 231 206 207 101 353 26 4 281 22 335 308 300 267 277 307 133 125
249 246 245 248 251 254 254 250 245 237 234 235 236 254 263 270 277 289 286 265 226 335 298 288 236 243 240 233 245 260 227 213 117 111 115 105 274 278 250 269 238 220 282 217 234 296 332
245 247 244 242 245 249 251 247 239 235 228 232 229 246 251 261 272 302 317 35 197 206 343 257 189 238 230 233 239 252 248 205 191 146 139 170 284 322 330 298 254 275 198 304 299 307 213
242 244 245 243 238 242 242 245 237 229 224 225 223 240 238 230 226 217 352 131 124 128 323 215 172 207 199 207 169 237 248 219 164 154 130 221 171 316 315 272 186 243 240 234 278 285 102
241 237 239 244 242 237 236 238 238 224 220 220 219 232 225 223 229 180 199 118 172 99 247 201 163 172 199 204 239 261 195 240 293 145 131 170 169 176 242 264 275 273 298 329 26 44 27
240 237 237 237 242 237 235 234 233 222 219 217 216 225 222 225 225 239 221 200 147 201 279 190 160 179 193 204 225 240 138 200 199 155 165 212 190 247 232 309 293 331 17 1 5 13 245
234 242 236 233 232 239 232 231 226 221 217 210 211 219 221 220 199 173 173 209 218 200 242 24 163 172 184 222 207 242 181 200 239 231 179 185 77 337 336 226 251 265 134 154 172 209 251
235 238 239 236 230 235 236 227 225 221 212 204 206 212 222 211 194 201 202 212 195 230 205 221 169 168 194 224 199 198 203 222 202 228 170 130 49 296 300 347 274 149 332 170 108 6 60
234 236 234 233 231 224 231 225 222 217 207 197 201 211 218 204 198 206 229 220 238 245 302 307 216 172 180 209 219 178 195 217 224 208 134 186 109 354 292 347 284 167 272 31 359 144 238
228 231 236 238 234 226 225 219 214 209 201 193 194 201 222 209 192 202 220 218 242 261 270 251 214 185 205 199 192 194 217 239 209 131 112 138 101 301 44 248 238 187 248 238 148 138 162
225 226 233 237 233 229 223 217 208 204 195 190 187 194 206 187 171 206 220 211 250 257 264 276 259 266 199 223 186 190 226 61 169 150 140 201 135 144 224 244 208 176 193 193 122 262 185
223 224 228 231 234 221 213 209 202 197 192 182 190 174 184 184 197 210 205 222 242 256 258 273 198 212 276 224 121 235 113 351 36 85 150 153 193 140 333 294 299 225 213 221 147 85 179
219 219 230 233 226 211 208 199 200 197 194 184 184 174 169 201 212 191 194 210 224 250 262 259 228 253 271 269 186 201 126 42 48 95 117 116 129 148 188 213 154 330 261 255 151 112 200
212 225 233 226 217 204 208 207 194 196 195 189 196 199 184 192 210 193 188 207 216 227 221 245 242 213 202 222 250 173 99 98 80 116 101 109 164 300 295 309 252 231 299 315 246 203 150
218 221 224 224 205 204 209 215 195 196 195 199 188 196 179 189 185 206 186 212 206 220 236 235 231 209 215 188 196 203 133 156 177 190 153 178 199 120 309 335 14 1 302 306 301 302 228
205 207 213 213 206 207 205 212 204 194 194 201 219 206 193 185 177 192 204 201 210 211 243 237 211 203 199 185 106 129 142 116 157 148 184 141 129 88 245 351 7 345 245 238 247 280 259
190 196 201 205 208 206 205 204 207 194 199 196 205 209 201 197 188 200 194 203 202 224 229 227 210 171 137 123 103 82 74 65 79 349 160 144 116 98 181 39 42 243 243 130 108 64 72
186 194 202 205 207 206 205 202 198 194 199 203 202 217 259 227 190 195 201 196 214 226 227 226 206 189 145 87 87 68 2 30 268 101 65 101 117 96 134 186 288 324 26 129 123 35 52
186 195 200 204 204 201 199 200 190 194 197 203 215 203 240 181 213 187 195 203 210 217 43 44 88 156 151 98 106 144 169 177 177 111 33 56 83 116 130 146 199 237 156 42 70 59 51
187 190 197 202 199 191 191 191 190 193 194 204 213 216 261 278 217 210 194 202 207 132 115 97 109 302 137 114 104 125 224 167 155 156 164 43 12 143 132 184 286 231 145 169 95 219 83
170 176 174 175 177 175 182 184 192 195 191 206 214 207 216 282 263 221 200 202 196 162 142 147 57 272 358 97 116 181 123 228 119 159 167 159 141 188 101 91 282 170 111 130 170 93 76
170 169 167 169 173 177 178 188 191 193 190 202 216 209 208 266 266 323 205 202 220 188 139 154 166 215 194 101 68 88 73 41 118 193 185 129 173 174 163 208 224 104 108 104 105 81 62